Terminal Aerodrome Forecast
Issued by NWS King Salmon, AK

Home | Current Version | Previous Version | Text Only | Print | Product List | Glossary On
Versions: 1 2 3 4 5 6 7 8 9 10 11 12 13 14 15 16 17 18 19 20 21 22 23 24 25 26 27 28 29 30 31 32 33
000
FTAK31 PANC 261134
TAFAKN
TAF
PAKN 261134Z 2612/2712 20005KT P6SM VCSH SCT025 BKN035
      TEMPO 2612/2616 BKN025
     FM261600 VRB04KT P6SM SCT035 BKN050
     FM262000 16010KT P6SM FEW040 SCT080
     FM270600 17012KT P6SM SCT050 BKN080=

USA.gov is the U.S. government's official web portal to all federal, state and local government web resources and services.